Location: Unspecified
(43.8044°N, 11.0278°E)
Time: 02:59:03
(UTC+02:00)

Resurs 1-4 Rocket - Visible Passes

Search period start: 28 July 2016 00:00
Search period end: 07 August 2016 00:00
Orbit: 800 x 814 km, 98.4° (Epoch: 27 July)

Date Brightness Start Highest point End Pass type
(mag) Time Alt. Az. Time Alt. Az. Time Alt. Az.
28 Jul 2.7 03:45:38 10° NNE 03:50:47 52° E 03:54:21 19° S visible
28 Jul 3.5 05:26:16 10° NNW 05:30:16 22° WNW 05:34:15 10° WSW visible
29 Jul 3.5 03:21:26 10° NNE 03:26:07 32° E 03:29:27 17° SSE visible
29 Jul 2.9 05:01:13 10° N 05:05:57 35° WNW 05:10:32 11° SW visible
30 Jul 4.1 02:57:36 10° NE 03:01:21 20° E 03:04:33 12° SE visible
30 Jul 2.3 04:36:24 10° N 04:41:33 56° WNW 04:45:38 16° SW visible
31 Jul 4.6 02:34:51 10° ENE 02:36:30 11° E 02:38:09 10° ESE visible
31 Jul 2.1 04:11:46 10° NNE 04:17:04 89° E 04:20:43 21° SSW visible
01 Aug 2.6 03:47:19 10° NNE 03:52:30 55° E 03:55:48 22° S visible
01 Aug 3.6 05:28:02 10° NNW 05:31:56 22° WNW 05:35:50 10° WSW visible
02 Aug 3.4 03:23:05 10° NNE 03:27:50 33° E 03:30:54 19° SSE visible
02 Aug 3.0 05:02:57 10° N 05:07:38 33° WNW 05:11:59 12° SW visible
03 Aug 4.1 02:59:13 10° NE 03:03:05 20° E 03:06:00 13° SE visible
03 Aug 2.3 04:38:07 10° N 04:43:14 54° WNW 04:47:04 18° SW visible
04 Aug 4.5 02:36:17 10° ENE 02:38:13 12° E 02:40:10 10° ESE visible
04 Aug 2.0 04:13:28 10° NNE 04:18:46 87° WNW 04:22:09 23° SSW visible
05 Aug 2.5 03:49:00 10° NNE 03:54:12 57° E 03:57:15 24° S visible
05 Aug 3.6 05:29:47 10° NNW 05:33:36 21° WNW 05:37:25 10° WSW visible
06 Aug 3.3 03:24:45 10° NNE 03:29:32 34° E 03:32:20 21° SSE visible
06 Aug 3.0 05:04:41 10° N 05:09:19 32° WNW 05:13:25 12° SW visible
